Location: Passau
(48.5830°N, 13.4830°E)
Time: 01:10:44
(UTC+02:00)

BlueWalker 3 - Visible Passes

Search period start: 16 April 2024 00:00
Search period end: 26 April 2024 00:00
Orbit: 485 x 496 km, 53.2° (Epoch: 15 April)

Date Brightness Start Highest point End Pass type
(mag) Time Alt. Az. Time Alt. Az. Time Alt. Az.
16 Apr 3.5 03:12:27 29° E 03:12:27 29° E 03:14:27 10° ESE visible
16 Apr 2.7 04:46:59 21° W 04:48:42 30° SW 04:52:05 10° SSE visible
16 Apr 3.0 21:47:14 10° SSW 21:49:29 27° S 21:49:29 27° S visible
17 Apr 2.9 04:25:07 28° S 04:25:07 28° S 04:27:35 10° SSE visible
17 Apr 2.6 21:22:44 10° SSW 21:26:09 32° SE 21:28:13 19° E visible
17 Apr 3.2 23:00:26 10° WSW 23:02:46 35° W 23:02:46 35° W visible
18 Apr 2.7 20:58:14 10° SSW 21:01:36 31° SE 21:05:00 10° ENE visible
18 Apr 2.2 22:35:51 10° WSW 22:39:40 67° NNW 22:40:40 45° NE visible
19 Apr 4.7 00:14:40 10° WNW 00:15:10 13° WNW 00:15:10 13° WNW visible
19 Apr 2.8 20:33:42 10° SSW 20:37:03 29° SE 20:40:24 10° ENE visible
19 Apr 2.1 22:11:16 10° WSW 22:15:05 69° NNW 22:17:54 17° ENE visible
19 Apr 3.8 23:50:05 10° WNW 23:52:22 29° NW 23:52:22 29° NW visible
20 Apr 2.1 21:46:40 10° WSW 21:50:29 71° NNW 21:54:19 10° ENE visible
20 Apr 3.1 23:25:28 10° WNW 23:29:06 40° N 23:29:08 40° N visible
21 Apr 2.1 21:22:04 10° WSW 21:25:52 73° NNW 21:29:42 10° ENE visible
21 Apr 3.1 23:00:51 10° WNW 23:04:29 40° N 23:05:39 31° NE visible
22 Apr 4.6 00:39:22 10° WNW 00:40:05 15° WNW 00:40:05 15° WNW visible
22 Apr 2.1 20:57:26 10° WSW 21:01:14 75° NNW 21:05:04 10° ENE visible
22 Apr 3.1 22:36:12 10° WNW 22:39:50 40° N 22:42:01 21° ENE visible
23 Apr 4.0 00:14:44 10° WNW 00:16:26 24° NW 00:16:26 24° NW visible
23 Apr 3.1 22:11:32 10° WNW 22:15:11 40° N 22:18:15 14° ENE visible
23 Apr 3.3 23:50:06 10° WNW 23:52:40 37° NW 23:52:40 37° NW visible
24 Apr 3.1 21:46:51 10° WNW 21:50:30 40° N 21:54:09 10° ENE visible
24 Apr 2.6 23:25:26 10° WNW 23:28:50 52° N 23:28:50 52° N visible
25 Apr 3.1 21:22:11 10° WNW 21:25:49 41° N 21:29:28 10° ENE visible
25 Apr 2.4 23:00:45 10° WNW 23:04:30 53° NNE 23:04:57 50° NE visible
